When you browse on this site, cookies collect data to enhance your experience and personalize the content and advertising you see.
Visit our Privacy Policy to learn more. By continuing to use the site, you agree to this use of cookies and data.
  • în România
  • Lista ţărilor
  • Pe 7 zile
  • Temperatura apei
  • Hartă satelitară
  • Meteo pe hartă
  • Widget-uri
  • user-avatar
    Intrare

    Meteo pe oră la Arnesano

    Astăzi, 17 Februarie, Duminică

    Timp Temperatura Precipitaţii Vânt Presiune Umiditate
    00:00 +8°C° 0 mm 4 m/s 767 mmHg 72%
    01:00 +8°C° 0 mm 5 m/s 767 mmHg 76%
    02:00 +8°C° 0 mm 5 m/s 767 mmHg 78%
    03:00 +8°C° 0 mm 5 m/s 767 mmHg 79%
    04:00 +8°C° 0 mm 5 m/s 767 mmHg 81%
    05:00 +8°C° 0 mm 5 m/s 767 mmHg 82%
    06:00 +8°C° 0 mm 5 m/s 767 mmHg 83%
    07:00 +8°C° 0 mm 4 m/s 767 mmHg 83%
    08:00 +9°C° 0 mm 5 m/s 767 mmHg 77%
    09:00 +12°C° 0 mm 5 m/s 767 mmHg 71%
    10:00 +13°C° 0 mm 5 m/s 767 mmHg 66%
    11:00 +14°C° 0 mm 5 m/s 767 mmHg 64%
    12:00 +14°C° 0 mm 5 m/s 767 mmHg 62%
    13:00 +15°C° 0 mm 5 m/s 767 mmHg 60%
    14:00 +14°C° 0 mm 5 m/s 767 mmHg 61%
    15:00 +14°C° 0 mm 5 m/s 766 mmHg 63%
    16:00 +14°C° 0 mm 4 m/s 766 mmHg 65%
    17:00 +13°C° 0 mm 4 m/s 766 mmHg 71%
    18:00 +11°C° 0 mm 4 m/s 766 mmHg 77%
    19:00 +10°C° 0 mm 4 m/s 766 mmHg 83%
    20:00 +10°C° 0 mm 3 m/s 766 mmHg 84%
    21:00 +10°C° 0 mm 3 m/s 766 mmHg 85%
    22:00 +9°C° 0 mm 3 m/s 766 mmHg 86%
    23:00 +9°C° 0 mm 3 m/s 766 mmHg 86%

    Mâine, 18 Februarie, Luni

    Timp Temperatura Precipitaţii Vânt Presiune Umiditate
    00:00 +9°C° 0 mm 3 m/s 766 mmHg 86%
    01:00 +9°C° 0 mm 2 m/s 766 mmHg 86%
    02:00 +9°C° 0 mm 2 m/s 766 mmHg 86%
    03:00 +8°C° 0 mm 2 m/s 766 mmHg 85%
    04:00 +8°C° 0 mm 2 m/s 765 mmHg 85%
    05:00 +8°C° 0 mm 2 m/s 765 mmHg 84%
    06:00 +8°C° 0 mm 2 m/s 765 mmHg 84%
    07:00 +8°C° 0 mm 2 m/s 765 mmHg 83%
    08:00 +9°C° 0 mm 2 m/s 766 mmHg 76%
    09:00 +12°C° 0 mm 2 m/s 766 mmHg 68%
    10:00 +14°C° 0 mm 2 m/s 766 mmHg 60%
    11:00 +15°C° 0 mm 2 m/s 766 mmHg 56%
    12:00 +15°C° 0 mm 2 m/s 765 mmHg 52%
    13:00 +16°C° 0 mm 2 m/s 765 mmHg 48%
    14:00 +16°C° 0 mm 1 m/s 765 mmHg 49%
    15:00 +16°C° 0 mm 1 m/s 765 mmHg 49%
    16:00 +16°C° 0 mm 1 m/s 765 mmHg 50%
    17:00 +14°C° 0 mm 1 m/s 765 mmHg 59%
    18:00 +13°C° 0 mm 1 m/s 765 mmHg 69%
    19:00 +11°C° 0 mm 1 m/s 765 mmHg 78%
    20:00 +10°C° 0 mm 0 m/s 765 mmHg 79%
    21:00 +9°C° 0 mm 0 m/s 765 mmHg 80%
    22:00 +9°C° 0 mm 0 m/s 765 mmHg 81%
    23:00 +9°C° 0 mm 0 m/s 765 mmHg 81%

    Poimâine, 19 Februarie, Marţi

    Timp Temperatura Precipitaţii Vânt Presiune Umiditate
    00:00 +8°C° 0 mm 0 m/s 765 mmHg 81%
    01:00 +8°C° 0 mm 0 m/s 765 mmHg 81%
    02:00 +8°C° 0 mm 0 m/s 764 mmHg 80%
    03:00 +7°C° 0 mm 0 m/s 764 mmHg 80%
    04:00 +7°C° 0 mm 0 m/s 764 mmHg 80%
    05:00 +7°C° 0 mm 0 m/s 764 mmHg 79%
    06:00 +7°C° 0 mm 0 m/s 764 mmHg 79%
    07:00 +7°C° 0 mm 0 m/s 764 mmHg 79%
    08:00 +9°C° 0 mm 0 m/s 764 mmHg 70%
    09:00 +12°C° 0 mm 1 m/s 765 mmHg 62%
    10:00 +14°C° 0 mm 1 m/s 765 mmHg 53%
    11:00 +15°C° 0 mm 1 m/s 765 mmHg 51%
    12:00 +16°C° 0 mm 1 m/s 764 mmHg 49%
    13:00 +18°C° 0 mm 1 m/s 764 mmHg 46%
    14:00 +16°C° 0 mm 1 m/s 764 mmHg 48%
    15:00 +16°C° 0 mm 1 m/s 764 mmHg 50%
    16:00 +16°C° 0 mm 2 m/s 764 mmHg 52%
    17:00 +15°C° 0 mm 2 m/s 764 mmHg 59%
    18:00 +13°C° 0 mm 1 m/s 764 mmHg 66%
    19:00 +12°C° 0 mm 1 m/s 764 mmHg 73%
    20:00 +12°C° 0 mm 1 m/s 764 mmHg 75%
    21:00 +10°C° 0 mm 2 m/s 764 mmHg 76%
    22:00 +10°C° 0 mm 2 m/s 764 mmHg 78%
    23:00 +9°C° 0 mm 2 m/s 764 mmHg 79%

    20 Februarie, Miercuri

    Timp Temperatura Precipitaţii Vânt Presiune Umiditate
    00:00 +10°C° 0 mm 1 m/s 764 mmHg 80%
    01:00 +10°C° 0 mm 1 m/s 764 mmHg 80%
    02:00 +9°C° 0 mm 1 m/s 764 mmHg 81%
    03:00 +9°C° 0 mm 1 m/s 764 mmHg 81%
    04:00 +9°C° 0 mm 1 m/s 764 mmHg 81%
    05:00 +9°C° 0 mm 1 m/s 764 mmHg 81%
    06:00 +9°C° 0 mm 1 m/s 764 mmHg 81%
    07:00 +9°C° 0 mm 1 m/s 764 mmHg 81%
    08:00 +11°C° 0 mm 1 m/s 765 mmHg 73%
    09:00 +13°C° 0 mm 1 m/s 765 mmHg 65%
    10:00 +15°C° 0 mm 2 m/s 765 mmHg 56%
    11:00 +15°C° 0 mm 2 m/s 765 mmHg 53%
    12:00 +16°C° 0 mm 2 m/s 765 mmHg 50%
    13:00 +17°C° 0 mm 3 m/s 765 mmHg 47%
    14:00 +16°C° 0 mm 3 m/s 765 mmHg 49%
    15:00 +16°C° 0 mm 3 m/s 765 mmHg 52%
    16:00 +14°C° 0 mm 4 m/s 764 mmHg 55%
    17:00 +13°C° 0 mm 3 m/s 765 mmHg 61%
    18:00 +12°C° 0 mm 3 m/s 765 mmHg 68%
    19:00 +10°C° 0 mm 3 m/s 765 mmHg 74%
    20:00 +10°C° 0 mm 3 m/s 765 mmHg 76%
    21:00 +10°C° 0 mm 3 m/s 766 mmHg 77%
    22:00 +10°C° 0 mm 3 m/s 766 mmHg 78%
    23:00 +9°C° 0 mm 3 m/s 766 mmHg 78%

    21 Februarie, Joi

    Timp Temperatura Precipitaţii Vânt Presiune Umiditate
    00:00 +9°C° 0 mm 3 m/s 766 mmHg 79%
    01:00 +9°C° 0 mm 3 m/s 766 mmHg 79%
    02:00 +9°C° 0 mm 3 m/s 766 mmHg 81%
    03:00 +8°C° 0 mm 4 m/s 766 mmHg 82%
    04:00 +8°C° 0 mm 4 m/s 766 mmHg 84%
    05:00 +8°C° 0 mm 4 m/s 766 mmHg 84%
    06:00 +10°C° 0 mm 4 m/s 766 mmHg 85%
    07:00 +10°C° 0 mm 4 m/s 766 mmHg 85%
    08:00 +11°C° 0 mm 4 m/s 766 mmHg 78%
    09:00 +13°C° 0 mm 5 m/s 766 mmHg 72%
    10:00 +14°C° 0 mm 5 m/s 767 mmHg 65%
    11:00 +15°C° 0 mm 5 m/s 766 mmHg 63%
    12:00 +15°C° 0 mm 6 m/s 766 mmHg 61%
    13:00 +15°C° 0 mm 6 m/s 766 mmHg 59%
    14:00 +15°C° 0 mm 6 m/s 766 mmHg 61%
    15:00 +14°C° 0 mm 6 m/s 766 mmHg 64%
    16:00 +14°C° 0 mm 6 m/s 766 mmHg 66%
    17:00 +13°C° 0 mm 6 m/s 766 mmHg 71%
    18:00 +12°C° 0 mm 5 m/s 766 mmHg 76%
    19:00 +10°C° 0 mm 5 m/s 766 mmHg 81%
    20:00 +11°C° 0 mm 4 m/s 766 mmHg 81%
    21:00 +10°C° 0 mm 4 m/s 766 mmHg 82%
    22:00 +10°C° 0 mm 4 m/s 766 mmHg 83%
    23:00 +10°C° 0 mm 4 m/s 766 mmHg 84%

    22 Februarie, Vineri

    Timp Temperatura Precipitaţii Vânt Presiune Umiditate
    00:00 +10°C° 0 mm 4 m/s 766 mmHg 85%
    01:00 +10°C° 0 mm 4 m/s 766 mmHg 85%
    02:00 +10°C° 0 mm 4 m/s 766 mmHg 86%
    03:00 +8°C° 0 mm 4 m/s 766 mmHg 87%
    04:00 +8°C° 0 mm 4 m/s 766 mmHg 87%
    05:00 +8°C° 0 mm 4 m/s 765 mmHg 87%
    06:00 +9°C° 0 mm 3 m/s 765 mmHg 88%
    07:00 +9°C° 0 mm 3 m/s 765 mmHg 88%
    08:00 +10°C° 0 mm 3 m/s 765 mmHg 81%
    09:00 +12°C° 0 mm 3 m/s 765 mmHg 74%
    10:00 +13°C° 0 mm 3 m/s 765 mmHg 66%
    11:00 +14°C° 0 mm 4 m/s 765 mmHg 63%
    12:00 +14°C° 0 mm 4 m/s 764 mmHg 59%
    13:00 +15°C° 0 mm 4 m/s 764 mmHg 56%
    14:00 +15°C° 0 mm 4 m/s 763 mmHg 58%
    15:00 +14°C° 0 mm 4 m/s 763 mmHg 60%
    16:00 +14°C° 0 mm 5 m/s 763 mmHg 63%
    17:00 +13°C° 0 mm 5 m/s 762 mmHg 69%
    18:00 +12°C° 0 mm 5 m/s 762 mmHg 76%
    19:00 +11°C° 0 mm 4 m/s 762 mmHg 82%
    20:00 +11°C° 0.1 mm 4 m/s 762 mmHg 82%
    21:00 +11°C° 0.1 mm 4 m/s 762 mmHg 81%
    22:00 +11°C° 0.1 mm 4 m/s 762 mmHg 81%
    23:00 +11°C° 0.2 mm 4 m/s 762 mmHg 81%
    Arată mai mult